Location: St. Louis
(38.6270°N, 90.1994°W)
Time: 05:50:44
(UTC-06:00)

A-11 Canister half - Pass Details

Date: 02 December 2021
Orbit: 1524 x 1684 km, 47.3° (Epoch: 22 January)

Event Time Altitude Azimuth Distance (km) Brightness Sun altitude
Exits shadow 01:59:18 22° 61° (ENE) 3,047 10.7 -57.8°
Drops below altitude 10° 02:02:09 10° 60° (ENE) 3,907 11.5 -57.3°
Sets 02:05:16 0° 60° (ENE) 4,878 12.1 -56.7°
